This is the latest recevied weather packets stored in our database for station/object EA7KZ-10. If no packets are shown the sender has not sent any weather packets the latest 10 day(s).
| Time | Temp. | Humidity | Pressure | Rain* | Wind** | Luminosity | Snow |
|---|---|---|---|---|---|---|---|
| 1777625995 | 21.11° C | 48% | 1019.5 hPa | - | - | - | - |
| 1777625395 | 21.11° C | 47% | 1019.4 hPa | - | - | - | - |
| 1777624795 | 21.11° C | 47% | 1019.4 hPa | - | - | - | - |
| 1777624195 | 21.11° C | 48% | 1019.4 hPa | - | - | - | - |
| 1777623595 | 20.56° C | 50% | 1019.4 hPa | - | - | - | - |
| 1777622995 | 20.56° C | 49% | 1019.5 hPa | - | - | - | - |
| 1777622395 | 20.56° C | 50% | 1019.5 hPa | - | - | - | - |
| 1777621795 | 20.56° C | 51% | 1019.7 hPa | - | - | - | - |
| 1777621195 | 20° C | 52% | 1019.8 hPa | - | - | - | - |
| 1777620595 | 19.44° C | 52% | 1019.8 hPa | - | - | - | - |
| 1777619996 | 19.44° C | 53% | 1019.8 hPa | - | - | - | - |
| 1777619394 | 18.89° C | 54% | 1019.8 hPa | - | - | - | - |
| 1777618795 | 18.89° C | 54% | 1019.8 hPa | - | - | - | - |
| 1777618195 | 18.33° C | 55% | 1020 hPa | - | - | - | - |
| 1777617595 | 18.33° C | 56% | 1019.9 hPa | - | - | - | - |
| 1777616995 | 17.78° C | 59% | 1020 hPa | - | - | - | - |
| 1777616395 | 17.78° C | 58% | 1020.1 hPa | - | - | - | - |
| 1777615795 | 17.22° C | 55% | 1020.1 hPa | - | - | - | - |
| 1777615195 | 17.22° C | 56% | 1020 hPa | - | - | - | - |
| 1777614596 | 17.22° C | 58% | 1019.9 hPa | - | - | - | - |
| 1777613995 | 17.78° C | 57% | 1019.8 hPa | - | - | - | - |
| 1777613395 | 17.22° C | 57% | 1019.7 hPa | - | - | - | - |
| 1777612194 | 17.78° C | 56% | 1019.6 hPa | - | - | - | - |
| 1777611595 | 17.78° C | 56% | 1019.5 hPa | - | - | - | - |
| 1777610994 | 17.78° C | 56% | 1019.5 hPa | - | - | - | - |
* Rain since midnight (hover to see other rain measurements)
** Current wind speed in m/s (hover to see current wind gust speed)